This is the latest recevied weather packets stored in our database for station/object E24CR-1. If no packets are shown the sender has not sent any weather packets the latest 10 day(s).
| Time | Temp. | Humidity | Pressure | Rain* | Wind** | Luminosity | Snow |
|---|---|---|---|---|---|---|---|
| 1777645275 | 27.78° C | 60% | 950 hPa | - | - | 0 W/m² | - |
| 1777644651 | 27.78° C | 58% | 950 hPa | - | - | 0 W/m² | - |
| 1777644027 | 28.89° C | 54% | 950 hPa | - | - | 0 W/m² | - |
| 1777643402 | 28.89° C | 53% | 950 hPa | - | - | 0 W/m² | - |
| 1777642779 | 30° C | 50% | 950 hPa | - | - | 0 W/m² | - |
| 1777642154 | 30.56° C | 46% | 950 hPa | - | - | 0 W/m² | - |
| 1777641530 | 31.11° C | 45% | 950 hPa | - | - | 0 W/m² | - |
| 1777640906 | 31.11° C | 45% | 950 hPa | - | - | 0 W/m² | - |
| 1777640282 | 31.11° C | 45% | 949 hPa | - | - | 0 W/m² | - |
| 1777639658 | 31.11° C | 45% | 949 hPa | - | - | 0 W/m² | - |
| 1777639027 | 31.11° C | 44% | 949 hPa | - | - | 0 W/m² | - |
| 1777638402 | 31.11° C | 44% | 949 hPa | - | - | 0 W/m² | - |
| 1777637778 | 31.11° C | 44% | 949 hPa | - | - | 0 W/m² | - |
| 1777637154 | 31.11° C | 43% | 948 hPa | - | - | 0 W/m² | - |
| 1777636530 | 31.67° C | 43% | 948 hPa | - | - | 0 W/m² | - |
| 1777635906 | 31.67° C | 42% | 948 hPa | - | - | 0 W/m² | - |
| 1777635282 | 31.67° C | 43% | 948 hPa | - | - | 0 W/m² | - |
| 1777634657 | 31.67° C | 42% | 948 hPa | - | - | 0 W/m² | - |
| 1777634033 | 32.22° C | 42% | 947 hPa | - | - | 0 W/m² | - |
| 1777633409 | 32.22° C | 41% | 947 hPa | - | - | 0 W/m² | - |
| 1777632785 | 32.78° C | 41% | 947 hPa | - | - | 0 W/m² | - |
| 1777632161 | 33.33° C | 41% | 948 hPa | - | - | 0 W/m² | - |
| 1777631537 | 33.33° C | 39% | 948 hPa | - | - | 0 W/m² | - |
| 1777630912 | 33.33° C | 38% | 948 hPa | - | - | 0 W/m² | - |
| 1777630288 | 33.89° C | 37% | 948 hPa | - | - | 0 W/m² | - |
* Rain since midnight (hover to see other rain measurements)
** Current wind speed in m/s (hover to see current wind gust speed)